"Pseudo-MPEC" for X60263

Created 2018 Oct 19 2:18:33 UT using Find_Orb

Click here for an explanation of pseudo-MPECs

 
 Astrometry: 
     X60263   C2018 09 28BOAstrometrye-Y:FYm)enXfWG1mYK(X+%sq=jTR2)r?f?vBfY.[D29
     X60263   C2018 09 28kNll9_%eg^JF1AcOpredacted;h3hbO.'%Pn88))fuPZ4UE!mo%kD29
     X60263   C2018 09 28e[@5I-W17em;/TD8u?BUSxT.k#0JnP+ieUvC@3b3*$N93r+.kN=DD29
     X60263  KC2018 09 29q-qtqvCG'2g\bd#PLj4+?M72L]:C[@:hseelh:h1;ow(,`F/6syJ118
     X60263  KC2018 09 29$rQBd=HGXk(x_Kj'eX9N6cZP/C@(vD`ou\39*ZKObIhg:pRNEOCP118

Station data:
(118) Modra  (N48.373144
   E17.274000)  Slovakia.  Observers S. Gajdos, A. Galád. 0.6-m f/5.5
   reflector + CCD.
(D29) Purple Mountain Observatory, XuYi Station  (N32.734366 E118.463900)
   China.  Observers H. B. Zhao, B. Li, G. Zhaori, R. Q. Hong, L. F. Hu.
   Measurers H. B. Zhao, B. Li. H. Lu, G. Zhaori. 1.04-m f/1.8 Schmidt + CCD.

Orbital elements:  X60263
   Perihelion 2018 Sep 14.680114 +/- 208 TT = 16:19:21 (JD 2458376.180114)
Epoch 2018 Sep 29.0 TT = JDT 2458390.5   Earth MOID: 0.0448   AutoNEOCP
M  11.47240 +/- 160                 (J2000 ecliptic)
n   0.80115220 +/- 0.0677           Peri.   38.10176 +/- 500
a   1.14813430 +/- 0.0647           Node   313.71230 +/- 300
e   0.0862626 +/- 0.114             Incl.    2.16712 +/- 1.7
P   1.23/449.34d           H 24.7   G  0.15   U 11.0  
q 1.04909319 +/- 0.0786    Q 1.24717541 +/- 0.201
From 5 observations 2018 Sept. 28-29 (26.1 hr); mean residual 0".97
Residuals in arcseconds: 
180928 D29  .70+  .61-    180928 D29  .78-  .13+    180929 118  .82+  1.8-    
180928 D29  .07+  .47+    180929 118  .82-  1.8+    

Ephemerides (geocentric):
Date (UTC) HH   RA              Dec         delta   r     elong  mag " sig PA
---- -- -- --  -------------   -----------  ------ ------ -----  --- ---- ---
2018 10 19 02  23 45 23.223   +30 32 11.94  .07770 1.0624 147.3 20.6 7599  87
2018 10 19 03  23 45 27.524   +30 31 49.52  .07775 1.0624 147.3 20.6 7621  87
2018 10 19 04  23 45 31.828   +30 31 27.06  .07780 1.0624 147.3 20.6 7644  87
2018 10 19 05  23 45 36.134   +30 31 04.55  .07785 1.0624 147.3 20.6 7666  87
2018 10 19 06  23 45 40.442   +30 30 42.00  .07790 1.0625 147.3 20.6 7688  87
2018 10 19 07  23 45 44.754   +30 30 19.40  .07796 1.0625 147.3 20.6 7711  87
2018 10 19 08  23 45 49.067   +30 29 56.75  .07801 1.0625 147.3 20.6 7733  87
2018 10 19 09  23 45 53.383   +30 29 34.06  .07806 1.0626 147.3 20.6 7756  87
2018 10 19 10  23 45 57.702   +30 29 11.32  .07811 1.0626 147.3 20.6 7778  87
2018 10 19 11  23 46 02.022   +30 28 48.53  .07816 1.0626 147.3 20.6 7801  87
2018 10 19 12  23 46 06.346   +30 28 25.70  .07821 1.0627 147.3 20.6 7823  87
2018 10 19 13  23 46 10.672   +30 28 02.83  .07826 1.0627 147.3 20.6 7846  88
2018 10 19 14  23 46 15.000   +30 27 39.91  .07831 1.0627 147.3 20.6 7868  88
2018 10 19 15  23 46 19.330   +30 27 16.94  .07837 1.0628 147.3 20.6 7891  88
2018 10 19 16  23 46 23.664   +30 26 53.93  .07842 1.0628 147.3 20.6 7913  88
2018 10 19 17  23 46 27.999   +30 26 30.87  .07847 1.0628 147.3 20.7 7936  88
2018 10 19 18  23 46 32.337   +30 26 07.77  .07852 1.0629 147.3 20.7 7958  88
2018 10 19 19  23 46 36.677   +30 25 44.63  .07857 1.0629 147.3 20.7 7981  88
2018 10 19 20  23 46 41.020   +30 25 21.44  .07863 1.0629 147.3 20.7 8004  88
2018 10 19 21  23 46 45.365   +30 24 58.21  .07868 1.0630 147.3 20.7 8026  88
2018 10 19 22  23 46 49.713   +30 24 34.93  .07873 1.0630 147.3 20.7 8049  88
2018 10 19 23  23 46 54.063   +30 24 11.61  .07878 1.0630 147.3 20.7 8072  88
2018 10 20 00  23 46 58.415   +30 23 48.25  .07883 1.0630 147.3 20.7 8094  88
2018 10 20 01  23 47 02.769   +30 23 24.85  .07889 1.0631 147.3 20.7 8117  88
2018 10 20 02  23 47 07.127   +30 23 01.40  .07894 1.0631 147.3 20.7 8139  88
2018 10 20 03  23 47 11.486   +30 22 37.90  .07899 1.0631 147.3 20.7 8162  88
2018 10 20 04  23 47 15.848   +30 22 14.37  .07904 1.0632 147.3 20.7 8185  88
2018 10 20 05  23 47 20.212   +30 21 50.79  .07909 1.0632 147.3 20.7 8208  88
2018 10 20 06  23 47 24.578   +30 21 27.17  .07915 1.0632 147.3 20.7 8230  88
2018 10 20 07  23 47 28.947   +30 21 03.50  .07920 1.0633 147.3 20.7 8253  88
2018 10 20 08  23 47 33.318   +30 20 39.80  .07925 1.0633 147.3 20.7 8276  88
2018 10 20 09  23 47 37.692   +30 20 16.05  .07930 1.0633 147.3 20.7 8298  88
2018 10 20 10  23 47 42.067   +30 19 52.26  .07936 1.0634 147.3 20.7 8321  89
2018 10 20 11  23 47 46.445   +30 19 28.43  .07941 1.0634 147.3 20.7 8344  89
2018 10 20 12  23 47 50.826   +30 19 04.56  .07946 1.0634 147.3 20.7 8367  89
2018 10 20 13  23 47 55.209   +30 18 40.64  .07951 1.0635 147.3 20.7 8389  89
2018 10 20 14  23 47 59.594   +30 18 16.69  .07957 1.0635 147.2 20.7 8412  89
2018 10 20 15  23 48 03.981   +30 17 52.69  .07962 1.0635 147.2 20.7 8435  89
2018 10 20 16  23 48 08.371   +30 17 28.65  .07967 1.0636 147.2 20.7 8458  89
2018 10 20 17  23 48 12.763   +30 17 04.57  .07973 1.0636 147.2 20.7 8481  89
2018 10 20 18  23 48 17.157   +30 16 40.45  .07978 1.0636 147.2 20.7 8503  89
2018 10 20 19  23 48 21.553   +30 16 16.29  .07983 1.0637 147.2 20.7 8526  89
2018 10 20 20  23 48 25.952   +30 15 52.09  .07988 1.0637 147.2 20.7 8549  89
2018 10 20 21  23 48 30.353   +30 15 27.85  .07994 1.0637 147.2 20.7 8572  89
2018 10 20 22  23 48 34.756   +30 15 03.57  .07999 1.0638 147.2 20.7 8595  89
2018 10 20 23  23 48 39.162   +30 14 39.25  .08004 1.0638 147.2 20.7 8618  89
2018 10 21 00  23 48 43.570   +30 14 14.89  .08010 1.0638 147.2 20.7 8641  89
2018 10 21 01  23 48 47.980   +30 13 50.49  .08015 1.0639 147.2 20.7 8664  89